Date String (YYYY-MM-DD hh:mm:ss) UTC,Instrument flags,absolute air pressure of the measurement (hPa),sample flow rate (lpm),inlet stack bypass flow (lpm),air temperature of the measurement (°C),ambient temperature measured by the external sensor (°C),aerosol sample conditioner tube jacket temperature (°C),OPC LED temperature (°C),internal box temperature (°C),relative humidity of the measurement (%),span deviation,mass concentration of particles derived from Lorenz-Mie calculation of OPC scattering (μg/m³),mass concentration of particles derived from Lorenz-Mie calculation of OPC scattering (μg/m³),mass concentration of particles derived from Lorenz-Mie calculation of OPC scattering (μg/m³)
DateTimeUTC,F1_M11,P_M11,Q1_M11,Q2_M11,T1_M11,T2_M11,T3_M11,T4_M11,T5_M11,U1_M11,ZSPAN_M11,X0_M11,X2_M11,X1_M11
2023-08-31 15:00:00,SystemResetWarning,0829.7,5.01,000.00,025.8,024.3,000.0,034.1,027.5,22.9,0000.0,0009.12,0003.52,0002.88
2023-08-31 15:01:00,SystemResetWarning,0829.8,5.00,000.00,025.9,024.6,000.0,034.2,027.6,23.3,0000.0,0008.79,0003.50,0002.87
2023-08-31 15:02:00,SystemResetWarning,0829.7,5.00,000.00,025.9,024.7,000.0,034.2,027.7,22.4,0000.0,0008.80,0003.51,0002.85
2023-08-31 15:03:00,SystemResetWarning,0829.8,4.98,000.00,025.9,023.8,000.0,034.1,027.4,21.5,0000.0,0008.67,0003.49,0002.83
2023-08-31 15:04:00,SystemResetWarning,0829.7,5.01,000.00,025.8,022.7,000.0,034.1,027.1,21.4,0000.0,0008.06,0003.46,0002.82
2023-08-31 15:05:00,SystemResetWarning,0829.7,5.01,000.00,025.8,022.8,000.0,034.0,027.2,21.7,0000.0,0008.01,0003.44,0002.82
2023-08-31 15:06:00,SystemResetWarning,0829.7,4.99,000.00,025.7,023.1,000.0,034.0,027.1,21.6,0000.0,0007.63,0003.43,0002.82
2023-08-31 15:07:00,SystemResetWarning,0829.8,5.01,000.00,025.7,023.5,000.0,034.1,027.2,22.0,0000.0,0008.09,0003.42,0002.82
2023-08-31 15:08:00,SystemResetWarning,0829.8,5.00,000.00,025.8,023.8,000.0,034.1,027.4,23.0,0000.0,0008.04,0003.40,0002.81
2023-08-31 15:09:00,SystemResetWarning,0829.8,5.00,000.00,025.8,024.1,000.0,034.1,027.5,26.3,0000.0,0007.93,0003.36,0002.80
2023-08-31 15:10:00,SystemResetWarning,0829.8,5.00,000.00,025.8,024.4,000.0,034.1,027.6,25.8,0000.0,0007.94,0003.34,0002.79
2023-08-31 15:11:00,SystemResetWarning,0829.8,4.99,000.00,025.9,024.6,000.0,034.1,027.7,24.8,0000.0,0008.38,0003.30,0002.78
2023-08-31 15:12:00,SystemResetWarning,0829.8,4.99,000.00,025.9,023.9,000.0,034.1,027.4,23.8,0000.0,0008.91,0003.30,0002.77
2023-08-31 15:13:00,SystemResetWarning,0829.7,5.01,000.00,025.8,022.7,000.0,034.0,027.1,22.4,0000.0,0008.82,0003.30,0002.78
2023-08-31 15:14:00,SystemResetWarning,0829.7,5.01,000.00,025.7,022.8,000.0,034.0,027.1,21.6,0000.0,0008.67,0003.31,0002.81
2023-08-31 15:15:00,SystemResetWarning,0829.7,5.00,000.00,025.7,023.1,000.0,034.0,027.1,25.2,0000.0,0009.19,0003.31,0002.83
2023-08-31 15:16:00,SystemResetWarning,0829.7,5.00,000.00,025.7,023.4,000.0,034.0,027.2,22.1,0000.0,0009.12,0003.30,0002.83
2023-08-31 15:17:00,SystemResetWarning,0829.7,4.99,000.00,025.7,023.8,000.0,034.0,027.3,19.9,0000.0,0009.16,0003.31,0002.82
2023-08-31 15:18:00,SystemResetWarning,0829.8,4.99,000.00,025.8,024.1,000.0,034.1,027.4,21.6,0000.0,0008.34,0003.31,0002.81
2023-08-31 15:19:00,SystemResetWarning,0829.8,5.00,000.00,025.8,024.4,000.0,034.1,027.5,21.7,0000.0,0008.26,0003.33,0002.83
2023-08-31 15:20:00,SystemResetWarning,0829.8,4.99,000.00,025.9,024.3,000.0,034.1,027.5,19.4,0000.0,0009.26,0003.34,0002.84
2023-08-31 15:21:00,SystemResetWarning,0829.7,5.00,000.00,025.8,023.1,000.0,034.0,027.1,19.2,0000.0,0009.33,0003.34,0002.85
2023-08-31 15:22:00,SystemResetWarning,0829.7,5.02,000.00,025.7,022.5,000.0,033.9,027.0,20.2,0000.0,0009.04,0003.33,0002.85
2023-08-31 15:23:00,SystemResetWarning,0829.7,4.99,000.00,025.6,022.8,000.0,033.9,027.0,20.6,0000.0,0008.36,0003.34,0002.87
2023-08-31 15:24:00,SystemResetWarning,0829.7,5.00,000.00,025.6,023.2,000.0,033.9,027.1,21.7,0000.0,0008.93,0003.36,0002.89
2023-08-31 15:25:00,SystemResetWarning,0829.8,5.00,000.00,025.6,023.5,000.0,034.0,027.2,22.3,0000.0,0009.63,0003.35,0002.87
2023-08-31 15:26:00,SystemResetWarning,0829.8,5.00,000.00,025.7,023.9,000.0,034.0,027.3,23.2,0000.0,0009.31,0003.35,0002.87
2023-08-31 15:27:00,SystemResetWarning,0829.8,5.00,000.00,025.7,024.2,000.0,034.0,027.4,22.5,0000.0,0009.47,0003.36,0002.88
2023-08-31 15:28:00,SystemResetWarning,0829.8,5.01,000.00,025.8,024.4,000.0,034.0,027.5,22.2,0000.0,0009.73,0003.38,0002.90
2023-08-31 15:29:00,SystemResetWarning,0829.8,4.99,000.00,025.8,024.4,000.0,034.0,027.6,22.1,0000.0,0010.01,0003.41,0002.92
2023-08-31 15:30:00,SystemResetWarning,0829.8,4.98,000.00,025.8,023.3,000.0,034.0,027.1,22.0,0000.0,0009.91,0003.40,0002.93
2023-08-31 15:31:00,SystemResetWarning,0829.8,5.01,000.00,025.7,022.6,000.0,033.9,027.0,23.1,0000.0,0008.89,0003.43,0002.94
2023-08-31 15:32:00,SystemResetWarning,0829.8,5.01,000.00,025.6,022.9,000.0,033.9,027.0,23.9,0000.0,0009.19,0003.47,0002.94
2023-08-31 15:33:00,SystemResetWarning,0829.8,4.99,000.00,025.6,023.2,000.0,033.9,027.1,22.6,0000.0,0009.60,0003.49,0002.94
2023-08-31 15:34:00,SystemResetWarning,0829.8,5.00,000.00,025.6,023.6,000.0,034.0,027.2,22.5,0000.0,0009.65,0003.49,0002.96
2023-08-31 15:35:00,SystemResetWarning,0829.8,5.01,000.00,025.7,023.9,000.0,034.0,027.3,22.9,0000.0,0009.31,0003.49,0002.98
2023-08-31 15:36:00,SystemResetWarning,0829.7,5.01,000.00,025.7,024.2,000.0,034.0,027.4,20.6,0000.0,0009.18,0003.49,0002.99
2023-08-31 15:37:00,SystemResetWarning,0829.8,5.00,000.00,025.8,024.5,000.0,034.0,027.5,20.0,0000.0,0008.98,0003.50,0002.99
2023-08-31 15:38:00,SystemResetWarning,0829.8,4.99,000.00,025.8,023.9,000.0,034.0,027.4,20.0,0000.0,0009.11,0003.51,0002.98
2023-08-31 15:39:00,SystemResetWarning,0829.8,5.00,000.00,025.7,022.8,000.0,033.9,026.9,22.2,0000.0,0008.92,0003.51,0002.99
2023-08-31 15:40:00,SystemResetWarning,0829.8,5.02,000.00,025.6,022.7,000.0,033.9,027.0,23.2,0000.0,0009.08,0003.48,0002.98
2023-08-31 15:41:00,SystemResetWarning,0829.8,5.00,000.00,025.6,023.0,000.0,033.9,027.0,21.4,0000.0,0009.75,0003.47,0002.97
2023-08-31 15:42:00,SystemResetWarning,0829.8,5.00,000.00,025.6,023.4,000.0,033.9,027.1,20.8,0000.0,0009.67,0003.45,0002.96
2023-08-31 15:43:00,SystemResetWarning,0829.8,4.99,000.00,025.6,023.7,000.0,033.9,027.2,21.6,0000.0,0009.29,0003.44,0002.97
2023-08-31 15:44:00,SystemResetWarning,0829.9,5.00,000.00,025.7,024.1,000.0,034.0,027.4,21.5,0000.0,0008.80,0003.42,0002.97
2023-08-31 15:45:00,SystemResetWarning,0829.8,5.00,000.00,025.7,024.4,000.0,034.0,027.5,23.2,0000.0,0008.73,0003.41,0002.96
2023-08-31 15:46:00,SystemResetWarning,0829.9,5.01,000.00,025.8,024.6,000.0,034.0,027.6,23.8,0000.0,0008.64,0003.39,0002.94
2023-08-31 15:47:00,SystemResetWarning,0829.8,4.98,000.00,025.8,024.1,000.0,034.0,027.5,23.8,0000.0,0007.97,0003.39,0002.92
2023-08-31 15:48:00,SystemResetWarning,0829.8,5.00,000.00,025.7,022.9,000.0,033.9,027.0,24.7,0000.0,0008.05,0003.40,0002.92
2023-08-31 15:49:00,SystemResetWarning,0829.8,5.01,000.00,025.7,022.8,000.0,033.9,027.1,24.8,0000.0,0008.06,0003.41,0002.92
2023-08-31 15:50:00,SystemResetWarning,0829.8,4.99,000.00,025.6,023.1,000.0,033.9,027.1,24.1,0000.0,0008.50,0003.40,0002.91
2023-08-31 15:51:00,SystemResetWarning,0829.8,5.00,000.00,025.6,023.5,000.0,033.9,027.2,23.5,0000.0,0007.85,0003.38,0002.91
2023-08-31 15:52:00,SystemResetWarning,0829.8,5.01,000.00,025.7,023.8,000.0,034.0,027.3,23.3,0000.0,0007.51,0003.39,0002.89
2023-08-31 15:53:00,SystemResetWarning,0829.8,5.00,000.00,025.7,024.1,000.0,034.0,027.4,23.0,0000.0,0007.53,0003.37,0002.88
2023-08-31 15:54:00,SystemResetWarning,0829.9,5.00,000.00,025.8,024.4,000.0,034.0,027.5,23.9,0000.0,0007.54,0003.35,0002.86
2023-08-31 15:55:00,SystemResetWarning,0829.9,4.99,000.00,025.8,024.0,000.0,034.0,027.4,24.7,0000.0,0007.53,0003.33,0002.84
2023-08-31 15:56:00,SystemResetWarning,0829.9,5.00,000.00,025.7,022.9,000.0,033.9,027.0,25.1,0000.0,0007.76,0003.33,0002.83
2023-08-31 15:57:00,SystemResetWarning,0829.9,5.01,000.00,025.7,022.8,000.0,033.9,027.0,25.8,0000.0,0008.01,0003.33,0002.82
2023-08-31 15:58:00,SystemResetWarning,0829.8,5.01,000.00,025.6,023.1,000.0,033.9,027.1,25.4,0000.0,0007.99,0003.33,0002.83
2023-08-31 15:59:00,SystemResetWarning,0829.8,5.00,000.00,025.6,023.4,000.0,033.9,027.1,25.2,0000.0,0008.29,0003.33,0002.84
